Showing default

KORSAT-2, 62377

Orbit data source: Space-Track

KORSAT-2, 62377 is a payload satellite owned by DAPA (KR) in LEO that was launched on Sat, 21 Dec 2024 UTC via an FALCON 9 launch vehicle from the Air Force Western Test Range (AFWTR). Payload-class satellites include a variety of spacecraft equipped with specific instruments for various scientific and technological missions. These include communications satellites like Starlink; space stations such as the ISS; scientific satellites like the Hubble; Earth observation satellites from companies like Planet Labs, Umbra, and HawkEye 360; GPS; miniature CubeSats for education and research; and military/defense satellites.

Loading next visibility...
Identifier
62377, 2024-247A
Orbit
LEO
Country
Flag of UnknownUnknown / SKOR
Related business
Manufacturer
KAI
Mission
Operational Defense Radar Imaging
Bus & Motor
CAS500?, Unknown motor
Mass
~800 kg wet, ~750 kg dry
Launch date (UTC)
2024-12-21 (1 year ago)
Launch vehicle
FALCON 9
Launch site
Air Force Western Test Range (AFWTR)
Object type
Payload
Rocket body
Debris
Shape & HBR
Hex Box + 3 Pan, 3.0 m
Radar Cross Section
10.467 m², Large (>1 m²)

Expand to show TLE details & history
Last TLE update: 21 hours ago

TLE from 21 hours ago
0 KORSAT-2
1 62377U 24247A   25348.89452588  .00003833  00000-0  33545-3 0  9995
2 62377  45.4098 303.2101 0012322 323.1399  36.8631 14.98350217 53912
Epoch: 2025-12-14T21:28Z
TLE epoch observation values (Epoch: 2025-12-14T21:28:07.036Z)
Latitude
-0.00001°
Longitude
-102.62012°
Altitude
565.19 km
Speed
7.584 km/s
True Right ascension
20h 12m 50s
True Declination
0° 00' 00"
Sunlit
Object was in daylight at epoch
Visualization orbit readout
Latitude
Unknown
Longitude
Unknown
Altitude
Unknown
Speed
Unknown
Apparent Right ascension
Unknown
Apparent Declination
Unknown
Sunlit
N/A
Visualization observer readout
Local Sidereal Time
17:09:20
Azimuth
Unknown
Elevation
Unknown
Doppler factor
Unknown
Orbital elements
Apogee altitude
582.08 km
Perigee altitude
564.948 km
Semi-major axis
6,951.651 km
Eccentricity
0.00123
Inclination
45.4098°
RAAN
303.2101°
Arg. of periapsis
323.1399°
True anomaly
36.94791°
Mean anomaly
36.8631°
Eccentric anomaly
36.90549°
Mean motion
3.74465 °/min
Orbital period
96.14 mins
BSTAR
0.00033545
Loading maneuver chart data...
Computing Atmospheric mass density...
Loading historical data...
Loading historical data...
Loading historical data...
Loading historical data...
Loading historical data...
Loading historical data...
Loading historical data...

Documentation

Showing up to 5 results
|